| time (UTC) | temp F | wind direction | speed knots | gust knots | rain 1hr in | rain 24hr in | rain mn in | humidity % | barometer mb |
| 20260503050053 | 40 | 206 | 0.0 | 0.0 | 0.00 | 0.00 | 0.00 | 81 | 1014.3 |
| 20260503045550 | 40 | 221 | 0.9 | 0.9 | 0.00 | 0.00 | 0.00 | 81 | 1014.4 |
| 20260503045047 | 40 | 192 | 0.9 | 0.9 | 0.00 | 0.00 | 0.00 | 81 | 1014.3 |
| 20260503044544 | 41 | 204 | 0.9 | 1.7 | 0.00 | 0.00 | 0.00 | 80 | 1014.5 |
| 20260503044042 | 41 | 172 | 1.7 | 1.7 | 0.00 | 0.00 | 0.00 | 81 | 1014.2 |
| 20260503043538 | 42 | 192 | 0.9 | 0.9 | 0.00 | 0.00 | 0.00 | 77 | 1014.3 |
| 20260503043034 | 42 | 232 | 0.9 | 0.9 | 0.00 | 0.00 | 0.00 | 77 | 1014.3 |
| 20260503042531 | 43 | 234 | 0.9 | 0.9 | 0.00 | 0.00 | 0.00 | 75 | 1014.4 |
| 20260503042027 | 43 | 246 | 0.9 | 0.9 | 0.00 | 0.00 | 0.00 | 73 | 1014.1 |
| 20260503041524 | 44 | 318 | 0.0 | 0.0 | 0.00 | 0.00 | 0.00 | 68 | 1013.9 |
| 20260503041022 | 44 | 324 | 0.9 | 0.9 | 0.00 | 0.00 | 0.00 | 67 | 1014.0 |
| 20260503040520 | 44 | 323 | 0.0 | 0.0 | 0.00 | 0.00 | 0.00 | 66 | 1014.0 |
| 20260503040017 | 44 | 343 | 0.0 | 0.0 | 0.00 | 0.00 | 0.00 | 66 | 1013.9 |
| 20260503035513 | 44 | 321 | 0.9 | 0.9 | 0.00 | 0.00 | 0.00 | 65 | 1013.8 |
| 20260503035011 | 44 | 340 | 0.0 | 0.0 | 0.00 | 0.00 | 0.00 | 65 | 1013.8 |
| 20260503034508 | 44 | 326 | 0.0 | 0.0 | 0.00 | 0.00 | 0.00 | 64 | 1014.1 |
| 20260503034005 | 44 | 308 | 0.9 | 0.9 | 0.00 | 0.00 | 0.00 | 64 | 1013.9 |
| 20260503033502 | 44 | 359 | 0.0 | 0.9 | 0.00 | 0.00 | 0.00 | 63 | 1013.9 |
| 20260503033000 | 44 | 351 | 0.9 | 1.7 | 0.00 | 0.00 | 0.00 | 64 | 1013.9 |
| 20260503032458 | 44 | 329 | 0.0 | 0.9 | 0.00 | 0.00 | 0.00 | 62 | 1013.7 |
| 20260503031956 | 44 | 356 | 0.9 | 0.9 | 0.00 | 0.00 | 0.00 | 62 | 1013.9 |
| 20260503031454 | 44 | 22 | 0.0 | 0.0 | 0.00 | 0.00 | 0.00 | 62 | 1013.9 |
| 20260503030950 | 44 | 13 | 0.0 | 0.0 | 0.00 | 0.00 | 0.00 | 61 | 1014.0 |
| 20260503030446 | 45 | 20 | 0.0 | 0.9 | 0.00 | 0.00 | 0.00 | 61 | 1013.9 |
| 20260503025943 | 45 | 334 | 0.9 | 0.9 | 0.00 | 0.00 | 0.00 | 60 | 1013.6 |
| 20260503025440 | 44 | 100 | 0.9 | 0.9 | 0.00 | 0.00 | 0.00 | 60 | 1013.7 |
| 20260503024938 | 44 | 349 | 0.0 | 0.9 | 0.00 | 0.00 | 0.00 | 62 | 1013.7 |
| 20260503024434 | 44 | 338 | 3.5 | 4.3 | 0.00 | 0.00 | 0.00 | 61 | 1013.7 |
| 20260503023932 | 44 | 317 | 1.7 | 1.7 | 0.00 | 0.00 | 0.00 | 62 | 1013.8 |
| 20260503023428 | 44 | 318 | 0.9 | 1.7 | 0.00 | 0.00 | 0.00 | 61 | 1013.7 |
| 20260503022925 | 44 | 319 | 0.0 | 0.9 | 0.00 | 0.00 | 0.00 | 61 | 1013.5 |
| 20260503022420 | 45 | 316 | 0.0 | 0.0 | 0.00 | 0.00 | 0.00 | 60 | 1013.5 |
| 20260503021916 | 45 | 335 | 0.0 | 0.0 | 0.00 | 0.00 | 0.00 | 59 | 1013.4 |
| 20260503021412 | 45 | 357 | 0.0 | 0.9 | 0.00 | 0.00 | 0.00 | 59 | 1013.4 |
| 20260503020910 | 46 | 13 | 2.6 | 2.6 | 0.00 | 0.00 | 0.00 | 59 | 1013.6 |
| 20260503020408 | 46 | 331 | 1.7 | 1.7 | 0.00 | 0.00 | 0.00 | 58 | 1013.2 |
| 20260503015904 | 46 | 349 | 1.7 | 1.7 | 0.00 | 0.00 | 0.00 | 59 | 1013.1 |
| 20260503015401 | 46 | 331 | 0.9 | 1.7 | 0.00 | 0.00 | 0.00 | 58 | 1013.4 |
| 20260503014856 | 46 | 347 | 0.9 | 0.9 | 0.00 | 0.00 | 0.00 | 59 | 1013.3 |
| 20260503014354 | 46 | 339 | 0.9 | 1.7 | 0.00 | 0.00 | 0.00 | 58 | 1013.0 |
| 20260503013852 | 47 | 359 | 1.7 | 1.7 | 0.00 | 0.00 | 0.00 | 58 | 1013.0 |
| 20260503013348 | 47 | 333 | 0.0 | 0.9 | 0.00 | 0.00 | 0.00 | 57 | 1012.7 |
| 20260503012846 | 48 | 320 | 0.0 | 0.9 | 0.00 | 0.00 | 0.00 | 56 | 1012.9 |
| 20260503012343 | 48 | 348 | 2.6 | 2.6 | 0.00 | 0.00 | 0.00 | 55 | 1013.0 |
| 20260503011840 | 48 | 333 | 2.6 | 2.6 | 0.00 | 0.00 | 0.00 | 54 | 1012.8 |
| 20260503011337 | 48 | 342 | 1.7 | 1.7 | 0.00 | 0.00 | 0.00 | 55 | 1012.9 |
| 20260503010833 | 48 | 12 | 0.9 | 1.7 | 0.00 | 0.00 | 0.00 | 54 | 1012.6 |
| 20260503010331 | 48 | 298 | 2.6 | 2.6 | 0.00 | 0.00 | 0.00 | 54 | 1012.6 |
| 20260503005827 | 49 | 0 | 1.7 | 2.6 | 0.00 | 0.00 | 0.00 | 53 | 1012.8 |
| 20260503005325 | 49 | 346 | 2.6 | 2.6 | 0.00 | 0.00 | 0.00 | 54 | 1012.3 |
| 20260503004821 | 49 | 0 | 2.6 | 2.6 | 0.00 | 0.00 | 0.00 | 54 | 1012.5 |
| 20260503004319 | 48 | 320 | 1.7 | 1.7 | 0.00 | 0.00 | 0.00 | 55 | 1012.3 |
| 20260503003816 | 49 | 356 | 0.0 | 0.9 | 0.00 | 0.00 | 0.00 | 57 | 1012.3 |
| 20260503003313 | 49 | 332 | 0.0 | 0.9 | 0.00 | 0.00 | 0.00 | 56 | 1012.2 |
| 20260503002810 | 49 | 330 | 0.0 | 0.0 | 0.00 | 0.00 | 0.00 | 56 | 1012.2 |
| 20260503002307 | 50 | 330 | 0.0 | 0.9 | 0.00 | 0.00 | 0.00 | 54 | 1012.1 |
| 20260503001803 | 50 | 335 | 1.7 | 1.7 | 0.00 | 0.00 | 0.00 | 52 | 1012.1 |
| 20260503001259 | 50 | 287 | 2.6 | 4.3 | 0.00 | 0.00 | 0.00 | 54 | 1012.0 |
| 20260503000757 | 51 | 324 | 0.9 | 1.7 | 0.00 | 0.00 | 0.00 | 52 | 1011.9 |
| 20260503000254 | 51 | 306 | 0.9 | 1.7 | 0.00 | 0.00 | 0.00 | 51 | 1011.9 |
| 20260502235751 | 51 | 322 | 3.5 | 4.3 | 0.00 | 0.00 | 0.00 | 51 | 1011.8 |
| 20260502235249 | 51 | 344 | 3.5 | 4.3 | 0.00 | 0.00 | 0.00 | 53 | 1011.7 |
| 20260502234745 | 52 | 357 | 1.7 | 1.7 | 0.00 | 0.00 | 0.00 | 51 | 1011.8 |
| 20260502234242 | 52 | 335 | 1.7 | 2.6 | 0.00 | 0.00 | 0.00 | 51 | 1011.7 |
| 20260502233738 | 52 | 313 | 2.6 | 2.6 | 0.00 | 0.00 | 0.00 | 50 | 1011.7 |
| 20260502233235 | 52 | 320 | 2.6 | 2.6 | 0.00 | 0.00 | 0.00 | 50 | 1011.7 |
| 20260502232731 | 52 | 298 | 2.6 | 4.3 | 0.00 | 0.00 | 0.00 | 50 | 1011.6 |
| 20260502232228 | 53 | 351 | 1.7 | 1.7 | 0.00 | 0.00 | 0.00 | 48 | 1011.5 |
| 20260502231725 | 53 | 338 | 2.6 | 2.6 | 0.00 | 0.00 | 0.00 | 49 | 1011.6 |
| 20260502231223 | 53 | 304 | 3.5 | 5.2 | 0.00 | 0.00 | 0.00 | 49 | 1011.5 |
| 20260502230721 | 53 | 332 | 6.1 | 7.8 | 0.00 | 0.00 | 0.00 | 48 | 1011.2 |
| 20260502230219 | 53 | 300 | 5.2 | 6.1 | 0.00 | 0.00 | 0.00 | 47 | 1011.5 |
| 20260502225715 | 53 | 322 | 2.6 | 2.6 | 0.00 | 0.00 | 0.00 | 47 | 1011.2 |
| 20260502225212 | 54 | 269 | 2.6 | 2.6 | 0.00 | 0.00 | 0.00 | 49 | 1011.5 |
| 20260502224708 | 54 | 325 | 2.6 | 2.6 | 0.00 | 0.00 | 0.00 | 48 | 1011.2 |
| 20260502224205 | 54 | 309 | 3.5 | 4.3 | 0.00 | 0.00 | 0.00 | 50 | 1011.4 |
| 20260502223702 | 54 | 267 | 4.3 | 6.1 | 0.00 | 0.00 | 0.00 | 47 | 1011.2 |
| 20260502223201 | 54 | 332 | 4.3 | 5.2 | 0.00 | 0.00 | 0.00 | 46 | 1011.3 |
| 20260502222658 | 54 | 279 | 3.5 | 4.3 | 0.00 | 0.00 | 0.00 | 47 | 1011.3 |
| 20260502222155 | 54 | 312 | 7.8 | 8.7 | 0.00 | 0.00 | 0.00 | 46 | 1011.2 |
| 20260502221650 | 54 | 329 | 5.2 | 6.1 | 0.00 | 0.00 | 0.00 | 47 | 1011.2 |
| 20260502221147 | 54 | 313 | 3.5 | 4.3 | 0.00 | 0.00 | 0.00 | 47 | 1011.2 |
| 20260502220643 | 54 | 342 | 6.1 | 7.0 | 0.00 | 0.00 | 0.00 | 45 | 1011.2 |
| 20260502220140 | 55 | 328 | 4.3 | 5.2 | 0.00 | 0.00 | 0.00 | 46 | 1011.1 |
| 20260502215637 | 56 | 355 | 4.3 | 5.2 | 0.00 | 0.00 | 0.00 | 45 | 1011.0 |
| 20260502215134 | 56 | 288 | 5.2 | 6.1 | 0.00 | 0.00 | 0.00 | 44 | 1011.1 |
| 20260502214631 | 55 | 290 | 6.1 | 7.0 | 0.00 | 0.00 | 0.00 | 45 | 1011.0 |
| 20260502214128 | 55 | 272 | 4.3 | 6.1 | 0.00 | 0.00 | 0.00 | 48 | 1010.9 |
| 20260502213625 | 56 | 311 | 2.6 | 2.6 | 0.00 | 0.00 | 0.00 | 47 | 1011.1 |
| 20260502213122 | 57 | 323 | 6.1 | 8.7 | 0.00 | 0.00 | 0.00 | 45 | 1011.1 |
| 20260502212621 | 56 | 314 | 4.3 | 5.2 | 0.00 | 0.00 | 0.00 | 47 | 1010.9 |
| 20260502212120 | 54 | 277 | 2.6 | 2.6 | 0.00 | 0.00 | 0.00 | 47 | 1011.1 |
| 20260502211614 | 54 | 306 | 4.3 | 5.2 | 0.00 | 0.00 | 0.00 | 50 | 1010.9 |
| 20260502211112 | 53 | 304 | 4.3 | 5.2 | 0.00 | 0.00 | 0.00 | 47 | 1010.9 |
| 20260502210609 | 53 | 309 | 4.3 | 5.2 | 0.00 | 0.00 | 0.00 | 49 | 1011.1 |
| 20260502210106 | 54 | 299 | 5.2 | 6.1 | 0.00 | 0.00 | 0.00 | 47 | 1011.0 |
| 20260502205603 | 54 | 282 | 4.3 | 5.2 | 0.00 | 0.00 | 0.00 | 47 | 1010.9 |
| 20260502205100 | 55 | 276 | 5.2 | 7.8 | 0.00 | 0.00 | 0.00 | 45 | 1010.8 |
| 20260502204556 | 57 | 246 | 4.3 | 6.1 | 0.00 | 0.00 | 0.00 | 47 | 1010.9 |
| 20260502204054 | 56 | 256 | 1.7 | 1.7 | 0.00 | 0.00 | 0.00 | 47 | 1011.1 |
| 20260502203551 | 55 | 301 | 2.6 | 4.3 | 0.00 | 0.00 | 0.00 | 47 | 1011.3 |
| 20260502203048 | 55 | 329 | 3.5 | 4.3 | 0.00 | 0.00 | 0.00 | 47 | 1011.2 |
| 20260502202544 | 54 | 261 | 2.6 | 4.3 | 0.00 | 0.00 | 0.00 | 49 | 1011.0 |
| 20260502202043 | 55 | 281 | 1.7 | 1.7 | 0.00 | 0.00 | 0.00 | 47 | 1011.3 |
| 20260502201538 | 54 | 293 | 3.5 | 6.1 | 0.00 | 0.00 | 0.00 | 51 | 1011.3 |
| 20260502201035 | 53 | 335 | 6.1 | 7.0 | 0.00 | 0.00 | 0.00 | 48 | 1011.2 |
| 20260502200530 | 53 | 340 | 7.0 | 7.8 | 0.00 | 0.00 | 0.00 | 48 | 1011.2 |
| 20260502200029 | 54 | 286 | 7.0 | 8.7 | 0.00 | 0.00 | 0.00 | 47 | 1011.2 |
| 20260502195526 | 54 | 314 | 4.3 | 5.2 | 0.00 | 0.00 | 0.00 | 48 | 1011.4 |
| 20260502195021 | 54 | 346 | 3.5 | 4.3 | 0.00 | 0.00 | 0.00 | 51 | 1011.4 |
| 20260502194519 | 53 | 290 | 6.1 | 7.8 | 0.00 | 0.00 | 0.00 | 48 | 1011.6 |
| 20260502194015 | 53 | 264 | 3.5 | 4.3 | 0.00 | 0.00 | 0.00 | 49 | 1011.4 |
| 20260502193512 | 53 | 266 | 6.1 | 7.0 | 0.00 | 0.00 | 0.00 | 47 | 1011.5 |
| 20260502193009 | 54 | 287 | 7.8 | 9.6 | 0.00 | 0.00 | 0.00 | 46 | 1011.5 |
| 20260502192505 | 54 | 262 | 3.5 | 6.1 | 0.00 | 0.00 | 0.00 | 49 | 1011.6 |
| 20260502192003 | 55 | 320 | 6.1 | 7.8 | 0.00 | 0.00 | 0.00 | 46 | 1011.6 |
| 20260502191500 | 54 | 293 | 5.2 | 7.0 | 0.00 | 0.00 | 0.00 | 48 | 1011.6 |
| 20260502190957 | 54 | 300 | 2.6 | 2.6 | 0.00 | 0.00 | 0.00 | 48 | 1011.6 |
| 20260502190454 | 54 | 323 | 3.5 | 5.2 | 0.00 | 0.00 | 0.00 | 51 | 1011.7 |
| 20260502185950 | 54 | 313 | 4.3 | 6.1 | 0.00 | 0.00 | 0.00 | 48 | 1011.8 |
| 20260502185446 | 53 | 335 | 2.6 | 2.6 | 0.00 | 0.00 | 0.00 | 52 | 1011.9 |
| 20260502184943 | 53 | 326 | 7.0 | 7.8 | 0.00 | 0.00 | 0.00 | 49 | 1012.0 |
| 20260502184438 | 55 | 326 | 3.5 | 4.3 | 0.00 | 0.00 | 0.00 | 47 | 1011.9 |
| 20260502183935 | 55 | 336 | 2.6 | 2.6 | 0.00 | 0.00 | 0.00 | 51 | 1011.8 |
| 20260502183431 | 56 | 342 | 2.6 | 2.6 | 0.00 | 0.00 | 0.00 | 52 | 1011.9 |
| 20260502182926 | 54 | 286 | 1.7 | 2.6 | 0.00 | 0.00 | 0.00 | 47 | 1012.1 |
| 20260502182422 | 54 | 295 | 4.3 | 4.3 | 0.00 | 0.00 | 0.00 | 50 | 1012.0 |
| 20260502181918 | 54 | 286 | 5.2 | 6.1 | 0.00 | 0.00 | 0.00 | 50 | 1012.1 |
| 20260502181417 | 54 | 314 | 4.3 | 6.1 | 0.00 | 0.00 | 0.00 | 50 | 1012.1 |
| 20260502180915 | 53 | 324 | 3.5 | 5.2 | 0.00 | 0.00 | 0.00 | 50 | 1012.2 |
| 20260502180412 | 53 | 299 | 6.1 | 7.8 | 0.00 | 0.00 | 0.00 | 48 | 1012.3 |
| 20260502170331 | 55 | 349 | 2.6 | 2.6 | 0.00 | 0.00 | 0.00 | 50 | 1012.3 |
| 20260502164318 | 53 | 86 | 0.9 | 0.9 | 0.00 | 0.00 | 0.00 | 46 | 1012.4 |
| 20260502163814 | 54 | 314 | 7.0 | 7.8 | 0.00 | 0.00 | 0.00 | 50 | 1012.6 |
| 20260502163310 | 53 | 298 | 5.2 | 7.0 | 0.00 | 0.00 | 0.00 | 52 | 1012.8 |
| 20260502162808 | 52 | 296 | 2.6 | 2.6 | 0.00 | 0.00 | 0.00 | 55 | 1012.4 |
| 20260502162305 | 53 | 302 | 5.2 | 6.1 | 0.00 | 0.00 | 0.00 | 51 | 1012.8 |
| 20260502161801 | 53 | 317 | 5.2 | 6.1 | 0.00 | 0.00 | 0.00 | 50 | 1012.6 |
| 20260502161257 | 56 | 318 | 1.7 | 1.7 | 0.00 | 0.00 | 0.00 | 51 | 1012.7 |
| 20260502160756 | 53 | 354 | 1.7 | 2.6 | 0.00 | 0.00 | 0.00 | 51 | 1012.7 |
| 20260502160255 | 54 | 335 | 0.9 | 0.9 | 0.00 | 0.00 | 0.00 | 52 | 1012.7 |
| 20260502152224 | 53 | 329 | 2.6 | 2.6 | 0.00 | 0.00 | 0.00 | 50 | 1013.2 |
| 20260502151721 | 53 | 336 | 3.5 | 4.3 | 0.00 | 0.00 | 0.00 | 51 | 1013.1 |
| 20260502151218 | 53 | 236 | 3.5 | 5.2 | 0.00 | 0.00 | 0.00 | 52 | 1013.0 |
| 20260502150715 | 53 | 276 | 0.9 | 1.7 | 0.00 | 0.00 | 0.00 | 50 | 1012.8 |
| 20260502150212 | 52 | 357 | 2.6 | 2.6 | 0.00 | 0.00 | 0.00 | 52 | 1013.1 |
| 20260502130601 | 44 | 274 | 1.7 | 1.7 | 0.00 | 0.00 | 0.00 | 99 | 1013.2 |
| 20260502123544 | 40 | 277 | 2.6 | 2.6 | 0.00 | 0.00 | 0.00 | 99 | 1013.3 |
| 20260502123040 | 40 | 257 | 0.9 | 0.9 | 0.00 | 0.00 | 0.00 | 99 | 1013.1 |
| 20260502122537 | 39 | 281 | 0.9 | 0.9 | 0.00 | 0.00 | 0.00 | 99 | 1013.1 |
| 20260502122034 | 39 | 243 | 0.9 | 0.9 | 0.00 | 0.00 | 0.00 | 99 | 1013.1 |
| 20260502121532 | 39 | 334 | 0.0 | 0.9 | 0.00 | 0.00 | 0.00 | 99 | 1013.1 |
| 20260502121029 | 38 | 342 | 0.0 | 0.0 | 0.00 | 0.00 | 0.00 | 99 | 1013.1 |
| 20260502120525 | 37 | 336 | 0.0 | 0.0 | 0.00 | 0.00 | 0.00 | 99 | 1013.3 |
| 20260502115520 | 37 | 334 | 0.0 | 0.9 | 0.00 | 0.00 | 0.00 | 99 | 1012.8 |
| 20260502115015 | 37 | 339 | 0.9 | 0.9 | 0.00 | 0.00 | 0.00 | 99 | 1012.7 |
| 20260502114513 | 36 | 335 | 0.0 | 0.0 | 0.00 | 0.00 | 0.00 | 99 | 1012.9 |
| 20260502114009 | 36 | 299 | 0.0 | 0.0 | 0.00 | 0.00 | 0.00 | 99 | 1012.9 |
| 20260502113507 | 35 | 262 | 0.0 | 0.0 | 0.00 | 0.00 | 0.00 | 99 | 1013.0 |
| 20260502113006 | 35 | 252 | 0.0 | 0.0 | 0.00 | 0.00 | 0.00 | 99 | 1013.0 |
| 20260502112503 | 35 | 284 | 0.0 | 0.9 | 0.00 | 0.00 | 0.00 | 99 | 1013.1 |
| 20260502112000 | 34 | 286 | 0.9 | 0.9 | 0.00 | 0.00 | 0.00 | 99 | 1013.0 |
| 20260502111457 | 34 | 286 | 0.9 | 0.9 | 0.00 | 0.00 | 0.00 | 99 | 1012.8 |
| 20260502110955 | 34 | 272 | 0.0 | 0.0 | 0.00 | 0.00 | 0.00 | 99 | 1012.8 |
| 20260502110452 | 34 | 269 | 0.0 | 0.0 | 0.00 | 0.00 | 0.00 | 99 | 1012.9 |
| 20260502105949 | 34 | 255 | 0.0 | 0.9 | 0.00 | 0.00 | 0.00 | 99 | 1012.8 |
| 20260502105447 | 34 | 274 | 0.0 | 0.0 | 0.00 | 0.00 | 0.00 | 99 | 1012.7 |
| 20260502104944 | 34 | 274 | 0.0 | 0.0 | 0.00 | 0.00 | 0.00 | 99 | 1012.6 |
| 20260502104441 | 33 | 274 | 0.0 | 0.0 | 0.00 | 0.00 | 0.00 | 99 | 1012.6 |
| 20260502103938 | 33 | 274 | 0.0 | 0.0 | 0.00 | 0.00 | 0.00 | 99 | 1012.6 |
| 20260502103436 | 33 | 274 | 0.0 | 0.0 | 0.00 | 0.00 | 0.00 | 99 | 1012.5 |
| 20260502102933 | 34 | 274 | 0.0 | 0.0 | 0.00 | 0.00 | 0.00 | 99 | 1012.4 |
| 20260502102430 | 34 | 274 | 0.0 | 0.0 | 0.00 | 0.00 | 0.00 | 99 | 1012.5 |
| 20260502101927 | 33 | 274 | 0.0 | 0.0 | 0.00 | 0.00 | 0.00 | 99 | 1012.7 |
| 20260502101425 | 34 | 274 | 0.0 | 0.0 | 0.00 | 0.00 | 0.00 | 99 | 1012.8 |
| 20260502100923 | 34 | 274 | 0.0 | 0.0 | 0.00 | 0.00 | 0.00 | 99 | 1013.0 |
| 20260502100422 | 34 | 274 | 0.0 | 0.0 | 0.00 | 0.00 | 0.00 | 99 | 1012.9 |
| 20260502091356 | 34 | 274 | 0.0 | 0.0 | 0.00 | 0.00 | 0.00 | 99 | 1012.9 |
| 20260502090854 | 34 | 274 | 0.0 | 0.0 | 0.00 | 0.00 | 0.00 | 99 | 1013.0 |
| 20260502090350 | 34 | 274 | 0.0 | 0.0 | 0.00 | 0.00 | 0.00 | 99 | 1013.1 |
| 20260502071245 | 36 | 271 | 0.0 | 0.0 | 0.00 | 0.00 | 0.00 | 99 | 1012.9 |
| 20260502070743 | 35 | 271 | 0.0 | 0.0 | 0.00 | 0.00 | 0.00 | 99 | 1012.4 |
| 20260502070240 | 35 | 271 | 0.0 | 0.0 | 0.00 | 0.00 | 0.00 | 99 | 1012.5 |
| 20260502065739 | 35 | 272 | 0.0 | 0.0 | 0.00 | 0.00 | 0.00 | 99 | 1012.8 |
| 20260502065237 | 36 | 271 | 0.0 | 0.0 | 0.00 | 0.00 | 0.00 | 99 | 1012.7 |
| 20260502064735 | 36 | 256 | 0.0 | 0.0 | 0.00 | 0.00 | 0.00 | 99 | 1012.7 |
| 20260502064232 | 36 | 254 | 0.0 | 0.0 | 0.00 | 0.00 | 0.00 | 99 | 1013.0 |
| 20260502063729 | 36 | 255 | 0.0 | 0.0 | 0.00 | 0.00 | 0.00 | 99 | 1012.9 |
| 20260502063227 | 36 | 300 | 0.0 | 0.0 | 0.00 | 0.00 | 0.00 | 99 | 1012.6 |
| 20260502062724 | 36 | 300 | 0.0 | 0.0 | 0.00 | 0.00 | 0.00 | 99 | 1012.8 |
| 20260502062222 | 37 | 301 | 0.0 | 0.0 | 0.00 | 0.00 | 0.00 | 99 | 1012.9 |
| 20260502061720 | 37 | 301 | 0.0 | 0.0 | 0.00 | 0.00 | 0.00 | 99 | 1012.9 |
| 20260502061217 | 37 | 149 | 0.0 | 0.0 | 0.00 | 0.00 | 0.00 | 99 | 1013.1 |
| 20260502060712 | 37 | 147 | 0.0 | 0.0 | 0.00 | 0.00 | 0.00 | 99 | 1013.3 |
| 20260502060209 | 37 | 147 | 0.0 | 0.0 | 0.00 | 0.00 | 0.00 | 99 | 1013.0 |
| 20260502055707 | 38 | 147 | 0.0 | 0.0 | 0.00 | 0.00 | 0.00 | 99 | 1013.2 |
| 20260502055204 | 38 | 147 | 0.9 | 0.9 | 0.00 | 0.00 | 0.00 | 99 | 1012.9 |
| 20260502054704 | 38 | 147 | 0.9 | 0.9 | 0.00 | 0.00 | 0.00 | 99 | 1012.9 |
| 20260502054200 | 38 | 146 | 0.0 | 0.0 | 0.00 | 0.00 | 0.00 | 99 | 1013.1 |
| 20260502053658 | 37 | 146 | 0.0 | 0.0 | 0.00 | 0.00 | 0.00 | 99 | 1013.2 |
| 20260502053154 | 37 | 146 | 0.0 | 0.0 | 0.00 | 0.00 | 0.00 | 98 | 1013.1 |
| 20260502052653 | 38 | 146 | 0.0 | 0.0 | 0.00 | 0.00 | 0.00 | 98 | 1013.2 |
| 20260502052151 | 37 | 146 | 0.0 | 0.0 | 0.00 | 0.00 | 0.00 | 98 | 1013.3 |
| 20260502051648 | 38 | 145 | 0.0 | 0.0 | 0.00 | 0.00 | 0.00 | 97 | 1013.2 |
| 20260502051147 | 38 | 147 | 0.0 | 0.0 | 0.00 | 0.00 | 0.00 | 98 | 1013.2 |
| 20260502050642 | 37 | 143 | 0.0 | 0.0 | 0.00 | 0.00 | 0.00 | 97 | 1013.4 |